Location: *
(19.9833°S, 47.3167°E)
Time: 16:49:33
(UTC+00:00)

Daily predictions for brighter satellites

Satellite Brightness Start Highest point End
(mag) Time Altitude Azimuth Time Altitude Azimuth Time Altitude Azimuth
Palapa 6 Rocket 3.7 14:42:18 10° W 14:47:16 66° S 14:53:30 10° E
NOSS 3-1 (C) 4.1 14:46:56 10° S 14:51:39 26° ESE 14:56:02 10° ENE
Cosmos 2360 Rocket 3.6 14:48:29 10° SSE 14:51:57 16° ESE 14:55:23 10° ENE
Stardust Del rocket 4.2 14:43:14 10° W 14:52:11 85° SSE 14:56:16 10° E
Abrixas rocket 2.3 14:52:19 10° NNW 14:55:16 50° NE 14:58:15 10° SE
Cosmos 1980 Rocket 4.2 14:51:46 10° SW 14:56:50 34° WNW 15:01:53 10° NNW
Cosmos 1703 3.7 14:53:26 10° SSE 14:57:15 42° E 15:01:01 10° NNE
SMAP 3.0 14:53:22 10° SSE 14:58:05 80° ENE 15:02:43 10° N
Iridium 82 4.5 14:57:20 10° N 15:00:50 74° E 15:04:29 10° S
Cosmos 1802 Rocket 4.1 14:54:55 10° S 15:01:21 71° E 15:07:44 10° N
ALOS 4.2 14:58:24 10° SSW 15:02:32 31° WSW 15:06:37 10° NW
Cosmos 44 Rocket 4.0 14:59:14 10° SSW 15:04:18 63° WNW 15:09:24 10° NNE
YAOGAN 1 4.2 15:02:39 10° ESE 15:05:24 16° E 15:08:07 10° NE
Cosmos 2061 Rocket 4.0 14:59:24 10° S 15:05:46 69° E 15:11:58 10° NNE
Meteor 1-11 4.3 15:05:07 10° S 15:10:45 60° E 15:16:23 10° NNE
GPS 2-15 Rocket1 3.1 15:10:53 10° W 15:15:42 89° NNE 15:19:34 15° E
Envisat 3.7 15:11:29 10° SE 15:16:01 32° E 15:20:30 10° NNE
Cosmos 1900 4.3 15:14:20 10° SSW 15:19:23 85° ESE 15:24:28 10° NNE
Cosmos 1864 Rocket 4.4 15:14:13 10° S 15:20:19 63° E 15:26:22 10° NNE
Atlas Centaur 2 3.0 15:15:43 10° SW 15:21:40 47° SSE 15:27:20 17° E
COBE Rocket 4.2 15:18:46 10° N 15:23:21 66° W 15:28:01 10° SSW
ASTRO E2 3.5 15:20:00 10° NW 15:23:42 38° NNE 15:25:58 20° E
Hubble Space Telescope 0.7 15:19:51 10° WNW 15:24:01 84° SSW 15:26:40 22° ESE
H-2A R/B 3.1 15:20:11 10° S 15:24:04 70° WSW 15:27:56 10° NNW
SL-08 R/B 4.4 15:18:11 10° S 15:24:28 76° E 15:30:34 10° N
Cosmos 2322 Rocket 2.2 15:18:45 10° SSW 15:24:29 87° ESE 15:30:10 10° NNE
USA 229 DEB 3.5 15:23:11 10° SSW 15:29:53 81° ESE 15:36:23 10° NNE
USA 229 3.5 15:23:19 10° SSW 15:30:00 80° ESE 15:36:29 10° NNE
GPS 2-14 Rocket1 3.7 15:26:15 10° W 15:30:11 43° NNW 15:33:31 13° NE
Cosmos 2056 Rocket 3.6 15:25:34 10° NNW 15:30:58 86° WSW 15:36:22 10° SSE
Yuri Rocket 3.3 15:27:27 10° WSW 15:31:57 75° SSE 15:36:04 19° ENE
SL-16 R/B 2.6 15:26:49 10° SSW 15:32:28 66° WNW 15:38:03 10° N
USA 234 3.2 15:27:53 11° SE 15:34:12 84° NE 15:40:45 10° NW
NOSS 3-1 (A) 3.6 15:29:02 10° S 15:34:17 36° ESE 15:39:07 10° NE
Cosmos 2058 4.2 15:38:50 23° ENE 15:38:50 23° ENE 15:41:07 10° NE
Cosmos 1300 3.2 15:39:39 10° NNW 15:43:24 61° W 15:47:14 10° S
PSLV R/B 4.4 15:40:56 10° SSW 15:42:26 23° S 15:42:26 23° S
Aureole 1 Rocket 3.5 15:41:27 10° SSW 15:44:24 44° WNW 15:47:45 10° N
Cosmos-2242 2.9 15:42:06 10° N 15:46:24 83° E 15:50:48 10° S
Meteor 2-1 Rocket 4.2 15:41:01 10° N 15:46:44 86° W 15:52:23 10° S
Cosmos 2322 4.3 15:42:38 10° S 15:47:41 32° ESE 15:48:31 31° E
Cosmos 2227 Rocket 3.0 15:44:56 10° NNE 15:49:43 29° ENE 15:49:49 29° E
Sakura Rocket 3.1 15:48:40 10° WSW 15:52:31 54° SSE 15:53:26 45° ESE
CZ-4 R/B 1.7 15:49:48 10° S 15:53:58 71° WSW 15:58:08 10° NNW
Ariane Rocket 3.6 15:57:55 36° ENE 15:57:55 36° ENE 16:02:16 10° NNE
CSL-04 Rocket 3.7 16:01:47 10° S 16:07:15 78° WSW 16:12:37 10° NNW
Cosmos 2219 3.2 16:01:58 10° NNW 16:07:41 87° WSW 16:10:42 29° SSE
Cosmos 1271 Rocket 4.4 16:06:41 10° SSW 16:10:09 34° W 16:13:38 10° NNW
Cosmos 2297 Rocket 2.3 16:06:01 10° N 16:11:24 51° ENE 16:11:24 51° ENE
Cosmos 2237 4.1 16:07:14 10° SSW 16:12:59 88° WNW 16:18:40 10° NNE
Meteor 2-20 4.3 16:08:37 10° N 16:14:42 88° ENE 16:19:19 19° S
APEX 4.4 16:12:59 10° SSW 16:17:10 55° WNW 16:22:26 10° N
OAO 3 Rocket 3.9 16:15:04 10° W 16:19:34 41° SSW 16:19:44 41° SSW
ARIANE 5 R/B 4.4 16:03:00 10° WNW 16:28:37 28° NNW 16:33:02 15° NNE
Cosmos 1452 Rocket 3.8 16:26:00 10° NNW 16:31:10 63° WSW 16:32:03 54° SSW
Cosmos 2360 Rocket 3.3 16:30:38 10° SW 16:35:58 42° WNW 16:41:16 10° N
Palapa 6 Rocket 3.8 16:30:31 10° WSW 16:36:24 89° N 16:36:28 88° ENE
CZ-3C R/B 2.8 16:39:53 10° W 16:47:22 47° WNW 16:47:22 47° WNW
Hubble Space Telescope 3.9 17:01:44 10° WSW 17:02:01 12° WSW 17:02:01 12° WSW
Atlas Centaur 2 3.2 17:04:23 10° WSW 17:09:59 60° W 17:09:59 60° W
Cosmos 2227 Rocket 4.4 17:29:07 10° WNW 17:31:42 20° W 17:31:42 20° W
